Tracking 30743 objects as of 25-Jun-2025
HD Live streaming from Space Station
objects crossing your sky now

COSMOS 2491 DEB

Track COSMOS 2491 DEB now!
10-day predictions


NORAD ID: 57568
Int'l Code: 2013-076BF
Perigee: 1,318.2 km
Apogee: 1,498.5 km
Inclination: 82.5 °
Period: 113.8 minutes
Semi major axis: 7779 km
RCS: Unknown
Launch date: December 25, 2013
Source: Commonwealth of Independent States (former USSR) (CIS)
Launch site: PLESETSK MISSILE AND SPACE COMPLEX (PKMTR)

Note: This is SATELLITE DEBRIS
Your satellite tracking list
Your tracking list is empty




NASA's NSSDC Master Catalog

Two Line Element Set (TLE):
1 57568U 13076BF  25171.20432681  .00000866  00000-0  44799-2 0  9995
2 57568  82.4710 354.1952 0115919 306.1589  52.8822 12.65279381 97492
Source of the keplerian elements: AFSPC